• In Kazakhstan
  • List of Countries
  • For 7 days
  • Water Temperature
  • Satellite Maps
  • Weather Map
  • News
  • Weather Widgets
  • user-avatar
    Login

    Hourly Weather Detroit

    Today, 23 September, Saturday

    Time Temperature Precipitation Wind Pressure Humidity
    00:00 +24°C° 0 mm 1 mps 747 mmHg 66%
    01:00 +24°C° 0.1 mm 1 mps 747 mmHg 66%
    02:00 +24°C° 0.1 mm 1 mps 748 mmHg 67%
    03:00 +23°C° 0.1 mm 1 mps 748 mmHg 68%
    04:00 +23°C° 0 mm 1 mps 748 mmHg 68%
    05:00 +21°C° 0 mm 0 mps 748 mmHg 69%
    06:00 +21°C° 0 mm 0 mps 749 mmHg 69%
    07:00 +23°C° 0 mm 0 mps 749 mmHg 64%
    08:00 +25°C° 0 mm 0 mps 749 mmHg 58%
    09:00 +27°C° 0 mm 0 mps 749 mmHg 52%
    10:00 +28°C° 0 mm 0 mps 749 mmHg 49%
    11:00 +31°C° 0 mm 1 mps 749 mmHg 46%
    12:00 +33°C° 0 mm 1 mps 749 mmHg 43%
    13:00 +33°C° 0 mm 1 mps 749 mmHg 43%
    14:00 +33°C° 0 mm 1 mps 749 mmHg 43%
    15:00 +33°C° 0 mm 1 mps 748 mmHg 43%
    16:00 +31°C° 0 mm 1 mps 748 mmHg 47%
    17:00 +30°C° 0 mm 1 mps 748 mmHg 50%
    18:00 +28°C° 0 mm 1 mps 748 mmHg 54%
    19:00 +27°C° 0 mm 1 mps 749 mmHg 55%
    20:00 +27°C° 0 mm 1 mps 749 mmHg 56%
    21:00 +26°C° 0 mm 1 mps 749 mmHg 56%
    22:00 +26°C° 0 mm 1 mps 749 mmHg 57%
    23:00 +25°C° 0 mm 1 mps 749 mmHg 57%

    Tomorrow, 24 September, Sunday

    Time Temperature Precipitation Wind Pressure Humidity
    00:00 +25°C° 0 mm 1 mps 749 mmHg 58%
    01:00 +25°C° 0 mm 1 mps 749 mmHg 58%
    02:00 +22°C° 0 mm 0 mps 749 mmHg 59%
    03:00 +22°C° 0 mm 0 mps 749 mmHg 59%
    04:00 +22°C° 0 mm 0 mps 749 mmHg 60%
    05:00 +22°C° 0 mm 0 mps 749 mmHg 61%
    06:00 +22°C° 0 mm 0 mps 749 mmHg 61%
    07:00 +26°C° 0 mm 1 mps 749 mmHg 57%
    08:00 +27°C° 0 mm 1 mps 749 mmHg 54%
    09:00 +29°C° 0 mm 1 mps 749 mmHg 50%
    10:00 +30°C° 0 mm 1 mps 749 mmHg 48%
    11:00 +31°C° 0 mm 2 mps 749 mmHg 46%
    12:00 +32°C° 0 mm 2 mps 749 mmHg 44%
    13:00 +32°C° 0 mm 2 mps 748 mmHg 45%
    14:00 +32°C° 0 mm 2 mps 748 mmHg 46%
    15:00 +32°C° 0 mm 2 mps 748 mmHg 46%
    16:00 +30°C° 0 mm 2 mps 748 mmHg 51%
    17:00 +29°C° 0 mm 2 mps 748 mmHg 55%
    18:00 +28°C° 0 mm 2 mps 748 mmHg 60%
    19:00 +27°C° 0 mm 2 mps 748 mmHg 61%
    20:00 +26°C° 0 mm 2 mps 748 mmHg 63%
    21:00 +26°C° 0 mm 2 mps 748 mmHg 65%
    22:00 +26°C° 0 mm 2 mps 748 mmHg 66%
    23:00 +25°C° 0 mm 1 mps 748 mmHg 68%

    Day after tomorrow, 25 September, Monday

    Time Temperature Precipitation Wind Pressure Humidity
    00:00 +25°C° 0 mm 1 mps 748 mmHg 69%
    01:00 +25°C° 0 mm 1 mps 747 mmHg 70%
    02:00 +24°C° 0 mm 1 mps 747 mmHg 72%
    03:00 +24°C° 0 mm 1 mps 747 mmHg 74%
    04:00 +24°C° 0 mm 1 mps 747 mmHg 75%
    05:00 +24°C° 0 mm 1 mps 748 mmHg 76%
    06:00 +24°C° 0 mm 1 mps 748 mmHg 77%
    07:00 +25°C° 0 mm 1 mps 748 mmHg 72%
    08:00 +27°C° 0 mm 1 mps 748 mmHg 68%
    09:00 +28°C° 0 mm 1 mps 748 mmHg 63%
    10:00 +30°C° 0 mm 1 mps 748 mmHg 59%
    11:00 +31°C° 0 mm 1 mps 747 mmHg 55%
    12:00 +32°C° 0 mm 2 mps 747 mmHg 51%
    13:00 +32°C° 0 mm 2 mps 747 mmHg 49%
    14:00 +32°C° 0 mm 2 mps 746 mmHg 48%
    15:00 +32°C° 0 mm 2 mps 746 mmHg 47%
    16:00 +30°C° 0 mm 2 mps 746 mmHg 52%
    17:00 +29°C° 0 mm 2 mps 746 mmHg 58%
    18:00 +27°C° 0 mm 2 mps 746 mmHg 63%
    19:00 +27°C° 0 mm 2 mps 746 mmHg 64%
    20:00 +26°C° 0 mm 2 mps 746 mmHg 66%
    21:00 +26°C° 0 mm 1 mps 746 mmHg 68%
    22:00 +25°C° 0 mm 1 mps 746 mmHg 69%
    23:00 +25°C° 0 mm 1 mps 746 mmHg 71%

    26 September, Tuesday

    Time Temperature Precipitation Wind Pressure Humidity
    00:00 +25°C° 0 mm 1 mps 746 mmHg 72%
    01:00 +24°C° 0 mm 1 mps 746 mmHg 74%
    02:00 +22°C° 0 mm 0 mps 746 mmHg 75%
    03:00 +22°C° 0 mm 0 mps 746 mmHg 76%
    04:00 +22°C° 0 mm 0 mps 746 mmHg 77%
    05:00 +22°C° 0 mm 0 mps 746 mmHg 77%
    06:00 +24°C° 0 mm 1 mps 747 mmHg 78%
    07:00 +25°C° 0 mm 1 mps 747 mmHg 72%
    08:00 +27°C° 0 mm 1 mps 747 mmHg 67%
    09:00 +28°C° 0 mm 1 mps 747 mmHg 62%
    10:00 +29°C° 0 mm 1 mps 747 mmHg 58%
    11:00 +30°C° 0 mm 2 mps 746 mmHg 54%
    12:00 +31°C° 0 mm 2 mps 746 mmHg 50%
    13:00 +31°C° 0 mm 2 mps 746 mmHg 50%
    14:00 +31°C° 0 mm 2 mps 745 mmHg 49%
    15:00 +31°C° 0 mm 1 mps 745 mmHg 49%
    16:00 +30°C° 0 mm 1 mps 745 mmHg 52%
    17:00 +29°C° 0 mm 2 mps 745 mmHg 55%
    18:00 +28°C° 0 mm 2 mps 745 mmHg 59%
    19:00 +27°C° 0 mm 2 mps 745 mmHg 61%
    20:00 +26°C° 0 mm 2 mps 745 mmHg 63%
    21:00 +26°C° 0 mm 2 mps 745 mmHg 66%
    22:00 +25°C° 0 mm 2 mps 745 mmHg 67%
    23:00 +25°C° 0 mm 2 mps 745 mmHg 68%

    27 September, Wednesday

    Time Temperature Precipitation Wind Pressure Humidity
    00:00 +25°C° 0 mm 2 mps 744 mmHg 70%
    01:00 +24°C° 0 mm 2 mps 744 mmHg 71%
    02:00 +24°C° 0 mm 1 mps 744 mmHg 72%
    03:00 +24°C° 0 mm 1 mps 744 mmHg 73%
    04:00 +24°C° 0 mm 1 mps 744 mmHg 74%
    05:00 +24°C° 0 mm 1 mps 744 mmHg 74%
    06:00 +23°C° 0 mm 2 mps 744 mmHg 75%
    07:00 +25°C° 0 mm 2 mps 744 mmHg 70%
    08:00 +27°C° 0 mm 2 mps 744 mmHg 65%
    09:00 +28°C° 0 mm 3 mps 744 mmHg 60%
    10:00 +29°C° 0.1 mm 3 mps 744 mmHg 57%
    11:00 +30°C° 0.1 mm 3 mps 743 mmHg 54%
    12:00 +30°C° 0.1 mm 3 mps 743 mmHg 51%
    13:00 +30°C° 0.1 mm 4 mps 742 mmHg 52%
    14:00 +30°C° 0.1 mm 4 mps 742 mmHg 53%
    15:00 +30°C° 0.1 mm 4 mps 742 mmHg 54%
    16:00 +28°C° 0 mm 4 mps 742 mmHg 58%
    17:00 +27°C° 0 mm 4 mps 742 mmHg 63%
    18:00 +26°C° 0 mm 4 mps 742 mmHg 67%
    19:00 +23°C° 0 mm 5 mps 743 mmHg 67%
    20:00 +22°C° 0 mm 5 mps 743 mmHg 66%
    21:00 +21°C° 0 mm 5 mps 743 mmHg 65%
    22:00 +20°C° 0 mm 5 mps 743 mmHg 68%
    23:00 +19°C° 0 mm 5 mps 743 mmHg 71%

    28 September, Thursday

    Time Temperature Precipitation Wind Pressure Humidity
    00:00 +17°C° 0 mm 5 mps 743 mmHg 74%
    01:00 +16°C° 0 mm 5 mps 743 mmHg 74%
    02:00 +15°C° 0 mm 4 mps 744 mmHg 74%
    03:00 +15°C° 0 mm 4 mps 744 mmHg 75%
    04:00 +14°C° 0 mm 4 mps 744 mmHg 76%
    05:00 +14°C° 0 mm 3 mps 744 mmHg 77%
    06:00 +14°C° 0 mm 3 mps 744 mmHg 78%
    07:00 +16°C° 0 mm 3 mps 744 mmHg 69%
    08:00 +17°C° 0 mm 4 mps 744 mmHg 60%
    09:00 +19°C° 0 mm 4 mps 745 mmHg 51%
    10:00 +20°C° 0 mm 4 mps 744 mmHg 48%
    11:00 +21°C° 0 mm 4 mps 744 mmHg 45%
    12:00 +22°C° 0 mm 4 mps 744 mmHg 42%
    13:00 +22°C° 0 mm 4 mps 743 mmHg 42%
    14:00 +22°C° 0 mm 4 mps 743 mmHg 42%
    15:00 +22°C° 0 mm 4 mps 742 mmHg 42%
    16:00 +22°C° 0 mm 4 mps 742 mmHg 45%
    17:00 +21°C° 0 mm 4 mps 742 mmHg 48%
    18:00 +20°C° 0 mm 4 mps 743 mmHg 50%
    19:00 +19°C° 0 mm 4 mps 743 mmHg 52%
    20:00 +17°C° 0 mm 5 mps 743 mmHg 53%
    21:00 +16°C° 0 mm 5 mps 743 mmHg 55%
    22:00 +15°C° 0 mm 5 mps 743 mmHg 58%
    23:00 +15°C° 0 mm 5 mps 743 mmHg 60%
    Show more